Airfield :
LOGIN :

Register | Disclaimer

   EN    FR    IT 

 










Legend :    VFR   Marginal VFR   IFR   Intensive IFR   Very Intensive IFR
Visi :
Ceiling :
>= 8 km
>= 3000ft
5 to 8 km
1000 to 3000 ft
1500m to 5 km
500 to 1000 ft
800 to 1500m
200 to 500 ft
< 800m
< 200 ft
Symbols :   Thunderstorms  Fog  Heavy snow  Heavy precipitations  Wind > 20 kt
SIGMETs :     Misc.  Thunderstorms  Icing  Turbulence  Mountain Waves  Volcanic Ashes







- Airport Elevation : 231 ft
- IATA code : WTN


EGXW - RAF Waddington

CURRENT METAR :
  • 151458Z 32012KT 9999 SHRA FEW013 SCT018 BKN025 05/02 Q1002 WHT TEMPO FEW018 BLU

EXPIRED METARs :
  • 151350Z 33015KT 9999 FEW012 SCT028 05/02 Q1000 BLU NOSIG
  • 151250Z 33014KT 9999 FEW012 SCT030 04/02 Q1000 BLU NOSIG

TAF TAF EGXW
Valid from the 15 at 15:00 until the 16 at 09:00 UTC


151321Z 1515/1609 33016KT 9999 SCT025
PROB30
TEMPO 1515/1519 33016G26KT 6000 SHRA FEW012 BKN016
BECMG 1523/1602 30010KT
No reported NOTAMs for that airfield.



MET'MAP, your aeronautical weather chart ! - Copyright ORBIFLY December 2007 - Disclaimer

ORBIFLY MET'MAP TEAM :

Programming & Development : Alexandra Zaïnal
Concept & Development : Baudouin d'Aumeries
Co-Development & Prog : Marc-Olivier Méhu
Technical & hardware support : Manuel Goepfert

Contact : metmap@orbifly.com




SOURCES & CREDITS :

   NOAA